Del Bajio, Mexico

5:12 AM CDT on April 26, 2017 (GMT -0500)
De Guanajuato International

Weather History for MMLO - December, 2012

Change the Weather History Date:

Monday, December 10, 2012

  Actual Average Record
Temperature  
Mean Temperature 60 °F -  
Max Temperature 75 °F 74 °F 82 °F (2004)
Min Temperature 44 °F 42 °F 33 °F (2010)
Degree Days  
Heating Degree Days 6    
Growing Degree Days 10 (Base 50)    
Moisture  
Dew Point 35 °F    
Average Humidity 43    
Maximum Humidity 62    
Minimum Humidity 23    
Precipitation  
Precipitation 0.00 in - - ()
Sea Level Pressure  
Sea Level Pressure 30.09 in    
Wind  
Wind Speed 3 mph ()    
Max Wind Speed 7 mph    
Max Gust Speed -    
Visibility 8.7 miles    
Events      
Averages and records for this station are not official NWS values.
T = Trace of Precipitation, MM = Missing Value Source: Averaged Metar Reports

Daily Weather History Graph

Daily Weather History Graph

Search for Another Location

Airport or City:

Trip Planner

Search our weather history database for the weather conditions in past years. The results will help you decide how hot, cold, wet, or windy it might be!

Date:

Astronomy

Dec. 10, 2012 Rise Set
Actual Time 7:12 AM CST 6:05 PM CST
Civil Twilight 6:48 AM CST 6:29 PM CST
Nautical Twilight 6:20 AM CST 6:57 PM CST
Astronomical Twilight 5:53 AM CST 7:24 PM CST
Moon 4:11 AM CST (12/10) 3:45 PM CST (12/10)
Length of Visible Light 11h 41m
Length of Day
10h 53m
Waning Crescent, 10% of the Moon is Illuminated
Dec 10
Waning Crescent
Dec 13
New
Dec 19
First Quarter
Dec 28
Full
Jan 4
Last Quarter

Hourly Weather History & Observations

Time (CST) Temp. Windchill Dew Point Humidity Pressure Visibility Wind Dir Wind Speed Gust Speed Precip Events Conditions
12:41 AM 51.8 °F - 35.6 °F 54% 30.24 in 8.0 mi Calm Calm - N/A   Clear
1:47 AM 50.0 °F - 33.8 °F 54% 30.21 in 8.0 mi Calm Calm - N/A   Clear
2:43 AM 48.2 °F - 33.8 °F 58% 29.87 in 8.0 mi ENE 4.6 mph - N/A   Clear
3:42 AM 46.4 °F 44.3 °F 33.8 °F 62% 30.18 in 8.0 mi NNE 4.6 mph - N/A   Clear
4:42 AM 46.4 °F 42.9 °F 33.8 °F 62% 30.18 in 8.0 mi NE 6.9 mph - N/A   Clear
5:41 AM 44.6 °F 41.4 °F 32.0 °F 61% 29.91 in 8.0 mi NE 5.8 mph - N/A   Clear
6:43 AM 44.6 °F 43.1 °F 32.0 °F 61% 30.21 in 8.0 mi NE 3.5 mph - N/A   Scattered Clouds
7:42 AM 46.4 °F 43.5 °F 33.8 °F 62% 30.21 in 9.0 mi NE 5.8 mph - N/A   Scattered Clouds
8:43 AM 55.4 °F - 33.8 °F 44% 30.01 in 9.0 mi Calm Calm - N/A   Scattered Clouds
9:41 AM 62.6 °F - 35.6 °F 37% 30.24 in 9.0 mi Calm Calm - N/A   Mostly Cloudy
10:40 AM 64.4 °F - 33.8 °F 32% 30.24 in 9.0 mi Calm Calm - N/A   Mostly Cloudy
11:44 AM 66.2 °F - 35.6 °F 32% 29.96 in 8.0 mi SSE 3.5 mph - N/A   Mostly Cloudy
12:40 PM 69.8 °F - 37.4 °F 31% 30.18 in 8.0 mi SSW 5.8 mph - N/A   Mostly Cloudy
1:43 PM 73.4 °F - 33.8 °F 23% 30.15 in 10.0 mi South 4.6 mph - N/A   Mostly Cloudy
2:44 PM 73.4 °F - 35.6 °F 25% 29.81 in 10.0 mi WSW 6.9 mph - N/A   Mostly Cloudy
3:52 PM 71.6 °F - 35.6 °F 27% 30.09 in 10.0 mi SW 6.9 mph - N/A   Mostly Cloudy
4:41 PM 75.2 °F - 35.6 °F 24% 30.09 in 10.0 mi SSE 5.8 mph - N/A   Mostly Cloudy
5:40 PM 68.0 °F - 35.6 °F 30% 29.83 in 10.0 mi Calm Calm - N/A   Mostly Cloudy
6:42 PM 62.6 °F - 35.6 °F 37% 30.12 in 10.0 mi SSW 6.9 mph - N/A   Mostly Cloudy
8:48 PM 62.6 °F - 37.4 °F 39% 29.87 in 8.0 mi Calm Calm - N/A   Mostly Cloudy
9:49 PM 62.6 °F - 37.4 °F 39% 30.16 in 8.0 mi WSW 6.9 mph - N/A   Scattered Clouds
10:45 PM 60.8 °F - 39.2 °F 45% 30.17 in 8.0 mi West 5.8 mph - N/A   Mostly Cloudy